| time (UTC) | temp F | wind direction | speed MPH | gust MPH | rain 1hr in | rain 24hr in | rain mn in | humidity % | barometer mb |
| 20260508080339 | 39 | 215 | 0.0 | 0.0 | 0.00 | 0.09 | 0.00 | 70 | 1013.9 |
| 20260508075337 | 39 | 216 | 0.0 | 0.0 | 0.00 | 0.09 | 0.00 | 70 | 1013.5 |
| 20260508074335 | 39 | 275 | 0.0 | 0.0 | 0.00 | 0.10 | 0.00 | 70 | 1013.5 |
| 20260508073334 | 39 | 245 | 0.0 | 0.0 | 0.00 | 0.10 | 0.00 | 70 | 1013.5 |
| 20260508072333 | 39 | 245 | 0.0 | 0.0 | 0.00 | 0.10 | 0.00 | 70 | 1013.5 |
| 20260508071259 | 39 | 245 | 0.0 | 0.0 | 0.00 | 0.10 | 0.00 | 70 | 1013.5 |
| 20260508070257 | 39 | 245 | 0.0 | 0.0 | 0.00 | 0.10 | 0.00 | 70 | 1013.5 |
| 20260508065256 | 39 | 245 | 0.0 | 0.0 | 0.00 | 0.10 | 0.00 | 70 | 1013.5 |
| 20260508064255 | 40 | 245 | 0.0 | 0.0 | 0.00 | 0.10 | 0.00 | 70 | 1013.2 |
| 20260508063254 | 40 | 245 | 0.0 | 0.0 | 0.00 | 0.10 | 0.00 | 70 | 1013.2 |
| 20260508062253 | 40 | 245 | 0.0 | 0.0 | 0.00 | 0.10 | 0.00 | 70 | 1013.2 |
| 20260508061252 | 40 | 245 | 0.0 | 0.0 | 0.00 | 0.10 | 0.00 | 70 | 1013.2 |
| 20260508060251 | 41 | 245 | 0.0 | 0.0 | 0.00 | 0.10 | 0.00 | 70 | 1013.2 |
| 20260508055250 | 41 | 245 | 0.0 | 0.0 | 0.00 | 0.10 | 0.00 | 70 | 1013.5 |
| 20260508054249 | 41 | 245 | 0.0 | 0.0 | 0.00 | 0.10 | 0.00 | 69 | 1013.2 |
| 20260508053249 | 41 | 245 | 0.0 | 0.0 | 0.00 | 0.10 | 0.00 | 69 | 1013.2 |
| 20260508052248 | 42 | 245 | 0.0 | 0.0 | 0.00 | 0.10 | 0.00 | 70 | 1013.2 |
| 20260508051145 | 42 | 245 | 0.0 | 0.0 | 0.00 | 0.10 | 0.00 | 70 | 1013.2 |
| 20260508050144 | 42 | 245 | 0.0 | 0.0 | 0.00 | 0.10 | 0.00 | 69 | 1013.2 |
| 20260508045143 | 42 | 245 | 0.0 | 0.0 | 0.00 | 0.10 | 0.00 | 70 | 1012.9 |
| 20260508044142 | 42 | 245 | 0.0 | 0.0 | 0.00 | 0.10 | 0.00 | 71 | 1012.5 |
| 20260508043008 | 43 | 245 | 0.0 | 0.0 | 0.00 | 0.10 | 0.00 | 70 | 1012.5 |
| 20260508042007 | 44 | 245 | 0.0 | 0.0 | 0.00 | 0.10 | 0.00 | 69 | 1012.5 |
| 20260508040934 | 44 | 245 | 0.0 | 1.0 | 0.00 | 0.10 | 0.00 | 69 | 1012.5 |
| 20260508035933 | 44 | 245 | 0.0 | 1.0 | 0.00 | 0.10 | 0.10 | 69 | 1012.2 |
| 20260508034932 | 44 | 245 | 0.0 | 0.0 | 0.00 | 0.10 | 0.10 | 70 | 1012.2 |
| 20260508033859 | 44 | 234 | 0.0 | 0.0 | 0.00 | 0.10 | 0.10 | 70 | 1012.2 |
| 20260508032827 | 44 | 234 | 0.0 | 0.0 | 0.00 | 0.11 | 0.10 | 70 | 1011.9 |
| 20260508031827 | 45 | 271 | 0.0 | 0.0 | 0.00 | 0.12 | 0.10 | 71 | 1011.9 |
| 20260508030826 | 45 | 271 | 0.0 | 0.0 | 0.00 | 0.14 | 0.10 | 71 | 1011.9 |
| 20260508025825 | 46 | 271 | 0.0 | 0.0 | 0.00 | 0.16 | 0.10 | 71 | 1011.9 |
| 20260508024824 | 46 | 271 | 0.0 | 0.0 | 0.00 | 0.17 | 0.10 | 71 | 1011.9 |
| 20260508023823 | 46 | 271 | 0.0 | 0.0 | 0.00 | 0.17 | 0.10 | 71 | 1011.2 |
| 20260508022822 | 46 | 271 | 0.0 | 0.0 | 0.00 | 0.17 | 0.10 | 71 | 1011.2 |
| 20260508021820 | 47 | 271 | 0.0 | 0.0 | 0.00 | 0.17 | 0.10 | 72 | 1011.2 |
| 20260508020818 | 47 | 271 | 0.0 | 0.0 | 0.00 | 0.18 | 0.10 | 73 | 1010.8 |
| 20260508015817 | 48 | 271 | 0.0 | 1.0 | 0.00 | 0.18 | 0.10 | 73 | 1010.8 |
| 20260508014816 | 48 | 263 | 1.0 | 1.0 | 0.00 | 0.18 | 0.10 | 72 | 1010.8 |
| 20260508013815 | 48 | 264 | 0.0 | 0.0 | 0.00 | 0.18 | 0.10 | 74 | 1010.5 |
| 20260508012814 | 49 | 278 | 0.0 | 0.0 | 0.00 | 0.18 | 0.10 | 76 | 1010.2 |
| 20260508011814 | 50 | 278 | 0.0 | 0.0 | 0.00 | 0.18 | 0.10 | 75 | 1009.8 |
| 20260508010813 | 51 | 278 | 0.0 | 1.0 | 0.00 | 0.18 | 0.10 | 74 | 1009.8 |
| 20260508005740 | 51 | 278 | 1.0 | 1.0 | 0.00 | 0.18 | 0.10 | 73 | 1009.5 |
| 20260508004739 | 52 | 242 | 0.0 | 1.0 | 0.00 | 0.18 | 0.10 | 76 | 1009.8 |
| 20260508003738 | 53 | 242 | 0.0 | 1.0 | 0.00 | 0.18 | 0.10 | 77 | 1009.8 |
| 20260508002735 | 54 | 198 | 0.0 | 0.0 | 0.00 | 0.18 | 0.10 | 80 | 1009.8 |
| 20260508001735 | 55 | 198 | 0.0 | 0.0 | 0.00 | 0.18 | 0.10 | 81 | 1009.5 |
| 20260508000734 | 56 | 211 | 0.0 | 2.0 | 0.00 | 0.18 | 0.10 | 82 | 1009.5 |
| 20260507235733 | 57 | 207 | 1.0 | 2.0 | 0.00 | 0.18 | 0.10 | 82 | 1009.8 |
| 20260507234701 | 57 | 217 | 0.0 | 0.0 | 0.00 | 0.18 | 0.10 | 66 | 1009.5 |
| 20260507233629 | 56 | 109 | 0.0 | 0.0 | 0.00 | 0.18 | 0.10 | 74 | 1009.1 |
| 20260507232558 | 56 | 109 | 0.0 | 0.0 | 0.00 | 0.18 | 0.10 | 76 | 1009.1 |
| 20260507231556 | 57 | 109 | 0.0 | 0.0 | 0.00 | 0.18 | 0.10 | 75 | 1008.8 |
| 20260507230555 | 57 | 109 | 0.0 | 0.0 | 0.00 | 0.18 | 0.10 | 76 | 1008.5 |
| 20260507225554 | 57 | 108 | 0.0 | 0.0 | 0.00 | 0.18 | 0.10 | 78 | 1008.8 |
| 20260507224553 | 57 | 118 | 0.0 | 2.0 | 0.00 | 0.18 | 0.10 | 80 | 1008.8 |
| 20260507223552 | 58 | 109 | 0.0 | 4.0 | 0.00 | 0.18 | 0.10 | 81 | 1008.5 |
| 20260507222551 | 58 | 99 | 0.0 | 4.0 | 0.00 | 0.18 | 0.10 | 76 | 1007.8 |
| 20260507221551 | 58 | 108 | 2.0 | 4.0 | 0.00 | 0.18 | 0.10 | 71 | 1008.1 |
| 20260507220550 | 58 | 112 | 0.0 | 4.0 | 0.00 | 0.18 | 0.10 | 74 | 1008.5 |
| 20260507215549 | 58 | 94 | 0.0 | 5.0 | 0.00 | 0.18 | 0.10 | 72 | 1008.5 |
| 20260507214517 | 58 | 117 | 0.0 | 5.0 | 0.00 | 0.18 | 0.10 | 72 | 1008.5 |
| 20260507213445 | 58 | 103 | 2.0 | 4.0 | 0.00 | 0.18 | 0.10 | 66 | 1008.1 |
| 20260507212444 | 58 | 105 | 2.0 | 6.0 | 0.00 | 0.18 | 0.10 | 66 | 1008.1 |
| 20260507211443 | 59 | 85 | 3.0 | 6.0 | 0.00 | 0.18 | 0.10 | 61 | 1008.1 |
| 20260507210442 | 58 | 79 | 2.0 | 7.0 | 0.00 | 0.18 | 0.10 | 60 | 1008.1 |
| 20260507205441 | 58 | 63 | 0.0 | 6.0 | 0.00 | 0.18 | 0.10 | 60 | 1007.8 |
| 20260507204409 | 58 | 92 | 1.0 | 3.0 | 0.00 | 0.18 | 0.10 | 60 | 1008.1 |
| 20260507203408 | 57 | 96 | 2.0 | 3.0 | 0.00 | 0.18 | 0.10 | 61 | 1007.8 |
| 20260507202407 | 56 | 94 | 1.0 | 3.0 | 0.00 | 0.18 | 0.10 | 61 | 1008.1 |
| 20260507201405 | 57 | 125 | 2.0 | 4.0 | 0.01 | 0.18 | 0.10 | 61 | 1008.1 |
| 20260507200403 | 56 | 202 | 0.0 | 4.0 | 0.01 | 0.18 | 0.10 | 61 | 1008.1 |
| 20260507195401 | 56 | 51 | 0.0 | 3.0 | 0.01 | 0.18 | 0.10 | 61 | 1008.5 |
| 20260507194227 | 57 | 77 | 1.0 | 3.0 | 0.01 | 0.18 | 0.10 | 61 | 1008.5 |
| 20260507193226 | 56 | 302 | 0.0 | 3.0 | 0.02 | 0.18 | 0.10 | 61 | 1003.1 |
| 20260507192225 | 57 | 356 | 1.0 | 5.0 | 0.02 | 0.18 | 0.10 | 62 | 1008.5 |
| 20260507191223 | 57 | 77 | 1.0 | 5.0 | 0.01 | 0.17 | 0.09 | 62 | 1008.1 |
| 20260507190222 | 57 | 267 | 2.0 | 5.0 | 0.02 | 0.17 | 0.09 | 61 | 1008.5 |
| 20260507185220 | 58 | 350 | 2.0 | 4.0 | 0.02 | 0.17 | 0.09 | 61 | 1008.5 |
| 20260507184219 | 57 | 71 | 2.0 | 4.0 | 0.03 | 0.17 | 0.09 | 61 | 1008.5 |
| 20260507183219 | 57 | 309 | 2.0 | 5.0 | 0.02 | 0.16 | 0.08 | 61 | 1008.5 |
| 20260507182217 | 57 | 70 | 1.0 | 5.0 | 0.02 | 0.16 | 0.08 | 61 | 1008.5 |
| 20260507181216 | 57 | 60 | 1.0 | 4.0 | 0.02 | 0.16 | 0.08 | 61 | 1008.5 |
| 20260507180144 | 57 | 15 | 3.0 | 4.0 | 0.01 | 0.15 | 0.07 | 61 | 1008.5 |
| 20260507175112 | 57 | 86 | 0.0 | 6.0 | 0.01 | 0.15 | 0.07 | 61 | 1008.5 |
| 20260507174111 | 57 | 86 | 2.0 | 6.0 | 0.01 | 0.15 | 0.06 | 62 | 1008.5 |
| 20260507173110 | 57 | 71 | 1.0 | 9.0 | 0.03 | 0.15 | 0.06 | 62 | 1008.5 |
| 20260507172109 | 58 | 82 | 2.0 | 7.0 | 0.03 | 0.16 | 0.06 | 62 | 1008.5 |
| 20260507171108 | 58 | 58 | 2.0 | 10.0 | 0.03 | 0.16 | 0.06 | 61 | 1008.5 |
| 20260507170106 | 58 | 64 | 2.0 | 8.0 | 0.04 | 0.16 | 0.06 | 61 | 1008.1 |
| 20260507165034 | 58 | 103 | 3.0 | 8.0 | 0.04 | 0.16 | 0.06 | 61 | 1008.1 |
| 20260507164033 | 59 | 71 | 3.0 | 6.0 | 0.03 | 0.15 | 0.05 | 62 | 1008.1 |
| 20260507163032 | 59 | 85 | 2.0 | 5.0 | 0.01 | 0.13 | 0.03 | 62 | 1008.5 |
| 20260507162001 | 60 | 75 | 2.0 | 5.0 | 0.01 | 0.13 | 0.03 | 61 | 1008.5 |
| 20260507160959 | 60 | 98 | 2.0 | 6.0 | 0.01 | 0.13 | 0.03 | 61 | 1008.5 |
| 20260507155957 | 60 | 110 | 2.0 | 11.0 | 0.00 | 0.13 | 0.02 | 61 | 1008.5 |
| 20260507154956 | 61 | 81 | 2.0 | 11.0 | 0.00 | 0.13 | 0.02 | 61 | 1008.1 |
| 20260507153955 | 61 | 105 | 4.0 | 7.0 | 0.00 | 0.13 | 0.02 | 61 | 1008.5 |
| 20260507152954 | 61 | 91 | 4.0 | 6.0 | 0.00 | 0.13 | 0.02 | 61 | 1008.5 |
| 20260507151952 | 60 | 60 | 2.0 | 6.0 | 0.00 | 0.13 | 0.02 | 61 | 1008.5 |
| 20260507150920 | 59 | 79 | 2.0 | 4.0 | 0.00 | 0.14 | 0.02 | 61 | 1008.5 |
| 20260507145919 | 59 | 84 | 1.0 | 4.0 | 0.00 | 0.14 | 0.02 | 62 | 1008.8 |
| 20260507144918 | 60 | 78 | 0.0 | 4.0 | 0.00 | 0.14 | 0.02 | 62 | 1008.5 |
| 20260507143917 | 60 | 87 | 2.0 | 4.0 | 0.00 | 0.14 | 0.02 | 62 | 1008.5 |
| 20260507142917 | 60 | 74 | 1.0 | 4.0 | 0.00 | 0.14 | 0.02 | 62 | 1008.1 |
| 20260507141916 | 60 | 80 | 1.0 | 2.0 | 0.00 | 0.14 | 0.02 | 62 | 1008.1 |
| 20260507140915 | 60 | 84 | 0.0 | 5.0 | 0.00 | 0.14 | 0.02 | 62 | 1008.1 |
| 20260507135914 | 60 | 77 | 2.0 | 7.0 | 0.00 | 0.14 | 0.02 | 63 | 1007.8 |
| 20260507134913 | 60 | 99 | 1.0 | 7.0 | 0.00 | 0.14 | 0.02 | 63 | 1008.1 |
| 20260507133911 | 60 | 86 | 0.0 | 6.0 | 0.00 | 0.14 | 0.02 | 63 | 1008.1 |
| 20260507132910 | 60 | 92 | 2.0 | 6.0 | 0.00 | 0.14 | 0.02 | 63 | 1008.1 |
| 20260507131909 | 61 | 79 | 2.0 | 5.0 | 0.00 | 0.14 | 0.02 | 63 | 1008.1 |
| 20260507130837 | 62 | 95 | 1.0 | 3.0 | 0.01 | 0.14 | 0.02 | 63 | 1008.8 |
| 20260507125835 | 62 | 112 | 0.0 | 3.0 | 0.01 | 0.14 | 0.02 | 63 | 1008.8 |
| 20260507124730 | 62 | 107 | 2.0 | 3.0 | 0.01 | 0.14 | 0.02 | 63 | 1008.8 |
| 20260507123729 | 62 | 79 | 0.0 | 1.0 | 0.01 | 0.14 | 0.02 | 64 | 1009.1 |
| 20260507122728 | 62 | 143 | 0.0 | 0.0 | 0.01 | 0.14 | 0.02 | 64 | 1009.1 |
| 20260507121727 | 62 | 150 | 0.0 | 0.0 | 0.01 | 0.14 | 0.02 | 64 | 1009.1 |
| 20260507120727 | 62 | 150 | 0.0 | 0.0 | 0.00 | 0.13 | 0.01 | 64 | 1008.8 |
| 20260507115726 | 62 | 150 | 0.0 | 0.0 | 0.00 | 0.13 | 0.01 | 64 | 1008.5 |
| 20260507114725 | 62 | 118 | 0.0 | 0.0 | 0.00 | 0.13 | 0.01 | 64 | 1008.5 |
| 20260507113723 | 62 | 118 | 0.0 | 0.0 | 0.00 | 0.13 | 0.01 | 64 | 1008.5 |
| 20260507112651 | 61 | 160 | 0.0 | 0.0 | 0.00 | 0.13 | 0.01 | 64 | 1008.1 |
| 20260507111649 | 61 | 160 | 0.0 | 0.0 | 0.00 | 0.13 | 0.01 | 64 | 1008.1 |
| 20260507110648 | 61 | 160 | 0.0 | 0.0 | 0.00 | 0.13 | 0.01 | 64 | 1008.1 |
| 20260507105616 | 61 | 160 | 0.0 | 0.0 | 0.00 | 0.13 | 0.01 | 64 | 1007.8 |
| 20260507104615 | 61 | 160 | 0.0 | 0.0 | 0.00 | 0.13 | 0.01 | 64 | 1007.8 |
| 20260507103614 | 61 | 216 | 0.0 | 0.0 | 0.00 | 0.13 | 0.01 | 64 | 1008.5 |
| 20260507102612 | 61 | 216 | 0.0 | 0.0 | 0.00 | 0.13 | 0.01 | 64 | 1008.1 |
| 20260507101539 | 61 | 216 | 0.0 | 0.0 | 0.00 | 0.13 | 0.01 | 64 | 1007.8 |
| 20260507100538 | 62 | 216 | 0.0 | 1.0 | 0.00 | 0.13 | 0.01 | 64 | 1007.8 |
| 20260507095538 | 62 | 204 | 0.0 | 1.0 | 0.00 | 0.13 | 0.01 | 65 | 1007.5 |
| 20260507094506 | 62 | 232 | 0.0 | 0.0 | 0.00 | 0.13 | 0.01 | 65 | 1007.5 |
| 20260507093505 | 62 | 204 | 0.0 | 1.0 | 0.00 | 0.13 | 0.01 | 65 | 1007.5 |
| 20260507092432 | 62 | 204 | 0.0 | 1.0 | 0.00 | 0.13 | 0.01 | 65 | 1007.1 |
| 20260507091431 | 62 | 253 | 0.0 | 2.0 | 0.00 | 0.13 | 0.01 | 65 | 1007.5 |
| 20260507090359 | 62 | 265 | 1.0 | 2.0 | 0.00 | 0.13 | 0.01 | 65 | 1008.1 |
| 20260507085358 | 62 | 238 | 0.0 | 1.0 | 0.00 | 0.13 | 0.01 | 65 | 1008.1 |
| 20260507084357 | 62 | 278 | 1.0 | 1.0 | 0.01 | 0.13 | 0.01 | 65 | 1008.1 |
| 20260507083355 | 62 | 212 | 0.0 | 1.0 | 0.01 | 0.13 | 0.01 | 65 | 1008.1 |
| 20260507082323 | 62 | 226 | 0.0 | 3.0 | 0.01 | 0.13 | 0.01 | 65 | 1008.1 |
| 20260507081323 | 62 | 272 | 0.0 | 3.0 | 0.01 | 0.13 | 0.01 | 65 | 1008.1 |